Temp
21 21 21 20 20 20 20 20 20 20 20 20 20 20 20 20 20 20 20 20 20 20 20 20 20 19 19 20 20 20 20 20 20 20 21 21 21 21 20 20 21 21
21 21 21 20 20 20 20 20 20 20 20 20 20 21 21 20 20 20 20 20 20 20 20 20 20 20 19 19 19 20 20 20 20 20 21 21 21 21 20 20 20 20
21 21 21 21 20 20 20 20 20 20 20 20 20 20 21 21 20 20 20 20 20 21 20 20 20 20 20 19 19 19 20 20 20 20 20 20 21 21 20 20 20 20
21 21 21 21 21 21 20 20 20 20 20 20 20 20 20 20 20 20 21 20 20 21 21 21 20 20 20 20 20 20 20 20 20 20 20 20 20 20 20 20 20 20
21 21 21 21 21 21 20 20 20 20 20 20 21 20 20 20 20 20 20 20 20 20 21 21 21 21 20 20 20 20 20 20 20 20 20 20 20 20 20 20 20 20
21 21 21 21 21 21 20 20 20 20 20 20 20 20 20 20 20 20 20 20 20 20 21 21 21 21 21 20 20 20 20 20 20 20 20 20 20 20 20 20 20 20
20 20 20 20 21 21 20 20 20 20 20 20 20 20 20 19 20 20 20 20 20 20 21 21 21 21 21 21 21 21 20 20 20 20 20 20 20 20 20 20 20 20
19 20 20 20 20 20 20 20 20 20 20 20 20 20 20 19 20 20 20 20 20 20 21 21 21 21 21 21 21 21 21 21 20 20 20 20 20 20 20 20 20 20
20 20 20 20 20 20 20 20 20 20 20 20 20 20 20 20 20 20 20 20 20 20 20 21 21 21 21 21 21 21 21 21 21 21 21 21 21 21 21 20 20 20
20 20 20 20 20 20 20 20 20 20 19 20 20 20 20 20 20 20 20 20 20 20 20 20 21 21 21 22 22 22 22 22 21 21 21 21 21 21 21 21 21 21
21 20 20 20 20 20 20 20 20 20 20 20 20 20 20 20 20 20 20 20 20 20 20 20 20 21 21 21 21 21 22 22 22 22 22 22 22 22 22 21 21 21
20 20 20 20 20 20 20 20 20 20 20 20 20 20 20 20 20 20 20 20 20 20 20 20 20 20 20 21 21 21 21 21 22 22 22 22 22 22 22 22 22 22
20 20 20 20 20 20 20 20 20 20 20 20 20 20 20 20 20 20 20 20 20 20 21 21 21 20 20 20 20 20 20 21 21 22 22 22 22 22 23 23 22 22
20 20 20 20 20 20 20 20 20 20 20 20 20 20 21 20 20 20 20 20 20 20 21 21 21 21 21 20 20 20 20 20 21 21 22 22 22 22 22 23 23 23
20 20 20 20 20 20 20 20 20 20 20 20 20 20 20 21 21 20 20 20 20 21 21 21 21 21 21 21 21 21 20 20 21 21 21 21 22 22 22 22 23 23
19 20 20 19 19 19 20 20 20 20 20 20 20 20 20 21 21 21 21 20 21 21 21 21 21 21 21 21 21 21 21 21 21 21 21 21 21 21 21 21 22 22
19 19 19 19 19 19 19 20 20 20 20 20 20 20 20 20 21 21 21 21 21 21 21 21 21 21 22 22 22 22 22 21 21 21 22 22 22 21 21 21 21 21
18 18 18 18 19 19 19 20 20 20 20 20 20 20 20 20 20 20 20 21 21 21 21 21 21 21 21 21 21 21 21 21 21 21 22 22 22 22 22 22 22 22
18 18 18 18 18 19 19 19 19 19 19 19 20 20 20 20 20 20 20 20 21 21 21 21 21 21 21 21 21 21 21 21 21 21 21 21 22 22 22 22 22 22
17 18 18 18 18 18 19 19 19 19 19 19 19 20 20 20 20 20 20 21 21 21 21 21 21 21 21 21 21 21 21 21 21 20 21 21 21 21 22 22 22 22
17 17 17 17 17 18 18 18 18 18 19 19 19 19 20 20 20 20 20 21 21 21 21 21 21 21 21 21 21 21 21 21 21 21 20 20 21 21 21 21 21 22
16 16 16 16 17 17 17 17 18 18 18 18 19 19 19 20 20 19 20 20 21 21 21 21 21 21 21 21 21 21 21 21 21 21 21 21 21 21 21 21 21 21
15 16 16 16 16 17 17 17 17 17 18 18 18 18 19 19 20 19 19 19 20 21 21 21 21 21 21 21 21 21 21 21 21 21 21 21 21 21 21 21 21 21
16 16 16 16 16 16 17 16 16 17 17 17 17 18 18 19 19 19 18 18 20 21 21 21 21 21 21 21 21 21 21 21 21 21 21 21 22 21 21 21 21 21
17 17 17 17 17 17 17 17 16 16 16 16 17 17 18 18 18 18 17 17 18 20 20 21 21 21 21 21 21 21 21 21 21 21 21 21 22 21 21 21 21 21
17 17 18 17 17 17 18 17 17 17 17 17 17 17 17 17 17 17 17 17 18 19 19 19 20 20 20 20 20 21 21 21 21 21 21 21 21 21 21 21 21 21
Height
1591 1593 1594 1595 1596 1598 1599 1600 1601 1602 1603 1603 1604 1605 1605 1606 1607 1607 1608 1608 1609 1610 1610 1611 1611 1612 1612 1613 1613 1613 1614 1614 1614 1615 1615 1615 1616 1616 1616 1617 1617 1617
1590 1592 1593 1594 1595 1597 1598 1600 1601 1601 1602 1603 1604 1605 1605 1606 1606 1607 1608 1608 1609 1610 1610 1611 1611 1611 1612 1612 1613 1613 1613 1614 1614 1614 1615 1615 1615 1615 1616 1616 1616 1617
1589 1591 1592 1593 1594 1596 1597 1599 1600 1601 1602 1603 1603 1604 1605 1605 1606 1606 1607 1608 1608 1609 1610 1610 1611 1611 1612 1612 1613 1613 1613 1614 1614 1614 1614 1615 1615 1615 1616 1616 1616 1616
1588 1590 1591 1593 1594 1595 1597 1598 1599 1600 1601 1602 1602 1603 1604 1605 1605 1606 1606 1607 1608 1608 1609 1610 1610 1611 1611 1612 1613 1613 1613 1613 1613 1614 1614 1614 1615 1615 1615 1616 1616 1616
1588 1590 1591 1592 1594 1595 1596 1596 1598 1599 1600 1601 1602 1603 1604 1604 1605 1605 1606 1607 1607 1608 1608 1609 1610 1610 1611 1611 1612 1613 1613 1613 1613 1613 1614 1614 1614 1615 1615 1615 1615 1615
1588 1589 1590 1592 1593 1594 1595 1595 1597 1598 1599 1600 1601 1602 1603 1604 1604 1605 1605 1606 1606 1607 1608 1608 1609 1609 1610 1610 1611 1612 1612 1612 1613 1613 1613 1614 1614 1614 1614 1615 1615 1615
1588 1589 1590 1591 1592 1593 1593 1594 1595 1596 1597 1599 1600 1601 1602 1603 1604 1604 1605 1605 1606 1606 1607 1607 1608 1608 1609 1609 1610 1610 1611 1611 1612 1612 1613 1613 1613 1613 1614 1614 1614 1614
1586 1587 1587 1589 1590 1591 1592 1593 1594 1595 1596 1597 1598 1599 1600 1601 1602 1603 1604 1604 1605 1605 1605 1606 1607 1607 1608 1608 1608 1609 1609 1610 1611 1611 1612 1612 1612 1613 1613 1613 1613 1613
1585 1586 1586 1587 1587 1589 1590 1591 1592 1593 1595 1596 1596 1597 1598 1599 1600 1601 1602 1603 1603 1603 1604 1604 1605 1605 1606 1607 1607 1608 1608 1608 1609 1610 1610 1611 1611 1612 1612 1612 1612 1613
1583 1585 1587 1587 1587 1587 1588 1589 1591 1592 1593 1594 1595 1596 1596 1597 1598 1599 1600 1600 1601 1601 1602 1603 1603 1604 1604 1605 1605 1606 1607 1607 1608 1608 1609 1610 1610 1611 1611 1611 1611 1611
1581 1582 1585 1587 1586 1586 1586 1588 1589 1590 1591 1592 1593 1594 1595 1596 1596 1597 1597 1598 1598 1599 1600 1601 1602 1602 1603 1603 1604 1605 1605 1606 1606 1607 1607 1608 1608 1609 1609 1610 1610 1610
1579 1580 1582 1584 1585 1585 1585 1587 1588 1589 1590 1590 1591 1592 1593 1594 1595 1595 1596 1596 1597 1597 1598 1599 1601 1601 1602 1602 1603 1604 1604 1605 1605 1605 1606 1606 1607 1607 1608 1608 1608 1608
1577 1578 1580 1581 1583 1584 1585 1586 1586 1587 1588 1589 1590 1590 1591 1592 1593 1594 1595 1595 1596 1596 1597 1598 1599 1600 1601 1601 1602 1603 1603 1603 1604 1604 1605 1605 1605 1606 1606 1606 1606 1607
1575 1576 1578 1580 1581 1582 1583 1583 1584 1585 1586 1587 1588 1589 1590 1590 1590 1592 1593 1594 1595 1595 1596 1597 1597 1598 1599 1600 1601 1601 1602 1602 1603 1603 1603 1604 1604 1604 1604 1605 1605 1605
1573 1574 1576 1578 1579 1580 1581 1581 1582 1583 1584 1585 1586 1587 1588 1588 1589 1590 1591 1592 1593 1594 1594 1595 1595 1596 1597 1598 1599 1600 1600 1601 1601 1601 1601 1602 1603 1603 1603 1603 1603 1603
1571 1572 1574 1575 1576 1577 1578 1579 1580 1581 1581 1582 1583 1584 1585 1586 1587 1588 1588 1590 1591 1592 1593 1593 1594 1595 1596 1596 1597 1598 1598 1599 1599 1599 1599 1600 1600 1601 1601 1602 1602 1602
1570 1571 1573 1574 1575 1575 1576 1577 1577 1578 1579 1580 1581 1582 1583 1584 1585 1586 1586 1587 1588 1589 1590 1591 1591 1593 1594 1595 1595 1596 1596 1597 1597 1597 1597 1597 1598 1598 1599 1599 1600 1600
1570 1570 1572 1573 1574 1574 1575 1575 1575 1576 1577 1578 1579 1579 1580 1582 1583 1583 1584 1585 1586 1587 1588 1588 1589 1590 1591 1592 1593 1593 1594 1595 1595 1595 1595 1595 1596 1596 1596 1597 1597 1598
1569 1570 1571 1572 1573 1573 1574 1574 1574 1574 1575 1576 1576 1577 1578 1579 1580 1581 1582 1583 1584 1584 1585 1586 1586 1587 1587 1588 1589 1590 1591 1592 1592 1593 1593 1593 1594 1594 1595 1595 1595 1595
1568 1569 1570 1572 1572 1572 1572 1572 1573 1573 1573 1573 1573 1574 1575 1577 1578 1579 1580 1580 1581 1582 1582 1583 1583 1584 1584 1585 1586 1587 1588 1589 1589 1590 1590 1591 1591 1591 1592 1592 1593 1593
1568 1569 1570 1571 1571 1570 1570 1571 1571 1571 1570 1570 1570 1571 1572 1574 1575 1577 1578 1578 1579 1579 1580 1580 1580 1581 1581 1582 1583 1584 1585 1586 1587 1587 1587 1588 1588 1588 1589 1589 1589 1590
1569 1569 1570 1569 1569 1568 1569 1569 1569 1569 1569 1569 1569 1569 1570 1570 1571 1573 1575 1575 1576 1576 1576 1577 1577 1578 1579 1580 1581 1582 1583 1584 1584 1585 1585 1585 1585 1585 1585 1585 1586 1586
1567 1568 1567 1567 1567 1567 1567 1567 1567 1567 1567 1567 1567 1568 1567 1567 1567 1569 1571 1572 1572 1572 1573 1573 1575 1576 1577 1578 1579 1580 1581 1581 1582 1582 1582 1582 1581 1582 1582 1582 1582 1582
1566 1566 1566 1566 1566 1566 1566 1566 1565 1565 1565 1565 1565 1565 1565 1564 1563 1565 1568 1569 1569 1569 1569 1570 1572 1573 1574 1575 1576 1577 1577 1578 1578 1578 1578 1578 1578 1578 1578 1579 1579 1579
1564 1565 1565 1565 1565 1564 1564 1564 1563 1563 1562 1562 1562 1562 1561 1561 1560 1562 1566 1567 1566 1565 1566 1567 1568 1570 1571 1572 1572 1573 1574 1574 1574 1574 1573 1574 1574 1574 1574 1575 1575 1575
1563 1564 1564 1564 1564 1563 1563 1562 1561 1560 1560 1559 1558 1558 1558 1558 1559 1561 1564 1565 1564 1563 1563 1564 1565 1567 1568 1569 1569 1570 1570 1570 1570 1570 1570 1570 1570 1570 1570 1570 1570 1571
Wind_Speed
23 23 21 20 18 18 19 19 18 18 17 15 13 11 9 8 9 8 9 10 9 8 9 9 9 8 8 8 8 8 8 8 9 10 9 9 9 10 11 10 10 8
23 23 21 21 19 17 18 19 19 18 17 15 13 11 9 9 9 8 8 10 9 8 8 8 8 8 8 9 9 8 9 9 9 9 9 9 10 11 11 10 11 10
24 23 22 22 20 19 18 18 18 18 17 16 14 12 11 9 9 8 8 10 9 8 8 8 8 8 8 9 9 10 9 9 9 9 9 9 10 10 10 11 11 10
23 23 23 22 20 19 18 17 17 16 17 17 15 13 12 10 9 10 9 10 10 9 9 9 8 8 8 8 9 10 10 9 9 10 9 9 10 10 10 11 11 9
22 22 22 22 20 19 18 17 16 15 15 16 16 14 13 11 10 10 10 10 10 10 10 10 10 9 9 9 9 9 9 9 9 10 10 10 10 10 11 11 10 9
21 21 21 21 20 20 20 18 16 15 14 14 15 14 14 13 11 10 11 10 10 11 11 11 11 11 10 10 10 9 10 10 9 10 11 10 10 11 11 11 10 10
20 20 20 19 19 20 20 20 19 17 15 14 14 14 14 15 14 12 11 11 10 12 12 11 11 12 11 11 11 10 10 10 10 11 11 11 11 11 11 12 12 12
21 22 21 20 19 19 19 19 19 18 15 14 15 15 15 16 17 15 14 13 13 13 13 13 12 11 11 12 12 12 11 11 11 11 11 11 12 12 11 12 13 14
22 22 22 22 21 20 19 19 19 17 15 14 15 16 16 17 17 17 17 16 15 14 13 13 14 13 12 12 12 12 12 12 13 12 12 12 12 12 11 11 13 14
21 22 22 21 22 22 20 19 19 18 17 15 15 16 17 17 17 18 18 19 19 18 15 14 14 14 14 14 13 12 12 13 14 14 14 13 13 12 11 11 12 13
21 22 22 20 21 21 21 20 20 20 19 18 17 17 17 18 18 18 18 19 19 19 18 16 15 15 15 15 14 13 13 13 14 15 15 14 14 14 14 13 13 13
23 23 22 21 21 21 22 22 22 21 21 21 20 19 18 19 20 20 19 19 18 18 18 18 18 17 16 16 15 15 14 14 15 15 16 16 15 14 14 14 14 14
23 23 22 20 20 22 22 22 23 24 23 22 22 20 20 20 21 22 22 21 19 18 17 16 17 18 18 18 18 17 17 17 16 16 16 16 16 15 15 14 14 14
22 22 21 19 19 22 23 22 23 25 24 24 23 22 21 21 21 22 24 23 21 19 17 15 15 16 18 19 20 20 20 20 19 18 17 17 17 16 16 16 15 15
18 20 21 21 20 21 22 23 23 24 24 24 24 23 23 23 22 22 24 25 23 21 19 17 16 16 15 16 18 20 22 23 23 22 21 20 20 18 18 17 17 17
13 15 17 20 21 21 22 23 23 23 23 24 24 22 22 24 24 23 24 26 25 24 22 20 19 17 15 15 15 15 17 20 23 24 24 24 23 22 21 20 19 19
11 13 15 17 19 21 22 23 23 23 23 24 24 22 21 21 22 23 24 25 26 25 23 22 22 20 18 16 15 15 15 16 18 21 23 24 25 25 25 24 23 22
11 12 13 14 16 17 18 20 20 20 21 22 24 24 24 21 18 20 24 25 26 26 24 24 24 24 23 22 21 19 18 17 17 17 18 19 21 22 23 24 25 25
10 11 11 11 12 13 14 15 16 17 19 20 21 23 26 24 19 19 23 26 27 27 26 25 24 25 25 25 24 23 22 21 21 20 19 18 18 18 18 19 21 22
8 8 10 11 11 12 13 14 15 15 16 18 19 22 25 25 22 21 23 26 28 27 26 26 25 24 24 24 25 24 24 24 24 24 23 22 21 20 19 19 19 19
6 7 9 11 11 12 14 15 16 16 16 17 18 20 23 24 23 23 24 26 28 28 27 26 25 25 24 24 24 23 23 24 24 23 24 25 25 24 23 23 23 23
5 6 7 9 9 11 12 14 15 16 16 17 17 18 20 22 22 22 24 27 28 29 29 29 28 27 26 25 24 23 22 22 23 23 23 25 26 26 26 26 25 26
6 5 4 5 5 6 7 9 11 13 14 16 17 17 18 20 21 21 22 25 28 30 31 31 31 31 29 28 27 26 26 27 28 28 29 29 30 29 29 28 27 26
6 4 3 3 2 2 2 3 5 8 10 13 15 17 17 18 20 21 20 22 26 29 31 32 33 33 31 31 31 31 32 34 34 35 36 36 36 35 35 34 32 30
4 4 3 3 2 1 1 1 1 3 6 9 12 14 15 15 16 18 19 19 21 25 28 30 31 32 32 33 33 33 34 35 36 38 38 38 38 38 38 38 38 36
1 1 1 0 0 1 2 2 2 1 3 5 8 11 13 13 15 17 18 18 18 21 23 24 25 26 27 29 31 32 32 33 34 35 36 36 37 37 37 38 38 38
Wind_Direction
211 213 211 206 204 204 208 211 215 220 225 228 228 227 221 212 207 208 213 213 210 210 214 214 213 217 225 231 227 217 220 223 224 225 216 211 211 203 201 205 199 196
209 213 213 210 208 208 213 217 220 222 226 228 228 227 220 208 206 209 210 212 207 206 218 218 213 219 226 230 231 226 225 225 225 227 220 213 213 207 205 207 206 208
209 210 211 211 213 214 217 220 221 223 227 229 226 225 225 218 217 218 213 214 210 204 215 220 216 221 224 227 231 229 228 228 226 227 223 219 220 217 213 208 207 212
209 211 211 212 215 218 220 219 219 221 225 229 226 223 225 224 224 226 222 219 216 210 213 219 221 222 222 225 231 230 229 231 230 228 223 222 224 221 214 208 208 213
210 212 213 215 216 217 220 222 222 223 223 226 226 221 220 220 221 229 230 225 223 221 215 215 221 223 224 228 230 232 235 234 232 230 226 225 225 222 218 215 214 219
212 214 216 218 219 219 220 222 226 230 229 228 225 221 220 222 224 230 234 233 232 230 222 217 218 218 222 228 229 232 236 233 230 231 232 231 229 227 224 222 223 225
219 218 219 221 223 223 223 222 225 230 234 234 227 223 224 227 230 231 234 242 244 239 233 228 223 218 218 224 228 230 233 234 233 234 235 232 230 230 227 228 230 228
219 216 216 219 222 224 224 222 223 225 231 236 231 225 225 228 233 234 236 244 248 245 241 238 235 226 221 224 226 227 230 235 237 237 238 236 232 231 230 233 236 233
220 219 216 214 215 219 222 219 218 218 225 234 234 228 223 225 230 233 234 239 245 246 243 241 239 234 229 229 226 226 230 234 237 237 239 242 241 238 238 244 246 244
219 223 224 220 215 216 219 218 217 216 220 229 233 230 225 223 226 230 233 237 242 246 245 242 242 239 237 235 230 227 231 234 238 239 238 240 243 241 240 244 249 252
219 221 225 226 221 218 218 220 221 221 221 224 226 227 229 229 227 230 235 238 241 245 249 248 247 245 242 241 238 235 234 236 239 241 241 241 243 244 244 245 249 253
223 223 224 225 225 223 220 219 224 227 226 227 225 223 225 229 231 234 237 241 242 245 249 253 252 250 247 246 245 244 244 244 242 242 244 246 247 249 250 250 253 255
226 227 226 226 229 229 225 221 223 228 230 231 230 227 223 224 230 236 239 242 245 246 250 256 257 256 253 250 248 249 251 253 253 251 249 250 252 254 256 257 257 258
228 231 231 233 234 234 232 229 226 228 231 232 232 232 228 225 227 233 239 242 244 247 252 257 260 260 257 254 253 252 253 255 259 261 260 258 256 256 258 262 263 263
229 231 232 234 236 235 235 235 233 232 233 232 231 231 231 230 228 230 236 240 242 245 249 253 258 262 262 261 260 259 257 257 259 263 266 267 266 262 260 261 264 266
223 228 232 232 233 233 234 236 237 237 235 232 229 228 230 233 233 232 233 237 241 245 247 249 252 259 265 268 269 268 265 263 262 263 265 267 269 268 266 264 265 266
204 219 226 229 231 232 233 235 237 239 238 232 227 226 227 230 235 238 237 236 239 243 246 248 249 255 263 266 269 271 271 270 269 267 267 266 267 267 267 268 268 269
196 205 213 220 224 226 229 231 233 234 233 230 228 226 223 223 231 239 240 238 239 241 245 247 248 251 256 260 262 263 266 270 273 274 273 271 270 269 269 270 271 272
204 208 212 218 222 222 223 225 226 227 226 226 227 224 219 219 225 232 234 235 238 240 244 246 248 249 251 254 257 258 259 263 267 272 275 276 277 276 275 276 277 278
225 226 228 234 235 230 227 225 226 227 224 223 223 221 220 222 229 233 231 231 234 237 240 244 247 248 248 249 252 255 256 257 260 263 267 270 273 274 275 276 277 278
226 225 230 235 235 232 231 230 228 228 228 225 222 221 223 226 234 238 235 232 233 234 237 240 243 245 245 245 248 252 255 257 257 259 260 262 264 266 268 270 271 274
177 198 217 226 233 235 235 235 233 233 234 233 230 228 226 228 234 239 237 234 233 234 236 239 241 243 243 242 243 246 250 253 256 259 262 263 264 265 265 265 266 268
153 170 192 207 226 240 244 244 243 241 241 240 239 236 233 232 234 238 240 237 234 235 237 239 241 243 244 245 245 246 248 252 256 260 263 265 266 267 268 267 265 264
133 135 135 145 181 230 261 260 249 247 249 250 248 245 241 238 237 240 247 246 240 238 240 241 242 243 246 249 251 251 253 255 258 261 262 264 266 267 268 269 269 268
120 121 115 106 104 98 67 34 266 250 257 263 263 259 255 253 249 248 254 257 250 244 245 247 248 247 248 251 252 253 255 257 259 261 263 264 266 267 268 268 269 269
140 146 155 124 26 55 56 36 12 335 290 282 281 279 275 272 267 262 262 265 263 256 253 254 257 257 255 254 254 254 255 256 258 260 262 264 265 266 267 267 267 268